• In Belarus
  • List of Countries
  • For 7 days
  • Water Temperature
  • Satellite Maps
  • Weather Map
  • Weather Widgets
  • user-avatar
    Login

    Hourly Weather Arhus

    Today, 21 September, Friday

    Time Temperature Precipitation Wind Pressure Humidity
    00:00 +16°C° 0 mm 7 mps 752 mmHg 89%
    01:00 +16°C° 0 mm 7 mps 751 mmHg 88%
    02:00 +16°C° 0 mm 7 mps 750 mmHg 86%
    03:00 +16°C° 0 mm 8 mps 749 mmHg 85%
    04:00 +16°C° 0 mm 8 mps 748 mmHg 83%
    05:00 +16°C° 0 mm 8 mps 747 mmHg 82%
    06:00 +16°C° 0 mm 9 mps 747 mmHg 81%
    07:00 +16°C° 0 mm 8 mps 746 mmHg 82%
    08:00 +17°C° 0.1 mm 9 mps 745 mmHg 78%
    09:00 +17°C° 0.1 mm 10 mps 744 mmHg 74%
    10:00 +18°C° 0.1 mm 11 mps 744 mmHg 70%
    11:00 +17°C° 0.4 mm 12 mps 744 mmHg 70%
    12:00 +15°C° 0.4 mm 12 mps 744 mmHg 69%
    13:00 +14°C° 0.4 mm 13 mps 744 mmHg 69%
    14:00 +14°C° 0.1 mm 13 mps 745 mmHg 67%
    15:00 +13°C° 0.1 mm 13 mps 745 mmHg 66%
    16:00 +12°C° 0.1 mm 13 mps 745 mmHg 64%
    17:00 +12°C° 0 mm 13 mps 745 mmHg 64%
    18:00 +10°C° 0 mm 13 mps 745 mmHg 64%
    19:00 +10°C° 0 mm 13 mps 745 mmHg 65%
    20:00 +9°C° 0.4 mm 12 mps 746 mmHg 69%
    21:00 +9°C° 0.4 mm 12 mps 746 mmHg 73%
    22:00 +9°C° 0.4 mm 11 mps 747 mmHg 78%
    23:00 +9°C° 0.2 mm 11 mps 747 mmHg 76%

    Tomorrow, 22 September, Saturday

    Time Temperature Precipitation Wind Pressure Humidity
    00:00 +9°C° 0.2 mm 10 mps 748 mmHg 75%
    01:00 +8°C° 0.2 mm 10 mps 749 mmHg 73%
    02:00 +8°C° 0 mm 10 mps 749 mmHg 73%
    03:00 +8°C° 0 mm 9 mps 750 mmHg 73%
    04:00 +8°C° 0 mm 9 mps 750 mmHg 74%
    05:00 +8°C° 0 mm 9 mps 751 mmHg 74%
    06:00 +8°C° 0 mm 9 mps 751 mmHg 75%
    07:00 +8°C° 0 mm 9 mps 752 mmHg 75%
    08:00 +10°C° 0.1 mm 9 mps 752 mmHg 71%
    09:00 +11°C° 0.1 mm 10 mps 752 mmHg 67%
    10:00 +12°C° 0.1 mm 11 mps 753 mmHg 63%
    11:00 +12°C° 0.1 mm 11 mps 753 mmHg 61%
    12:00 +13°C° 0.1 mm 10 mps 753 mmHg 59%
    13:00 +13°C° 0.1 mm 10 mps 753 mmHg 57%
    14:00 +12°C° 0.2 mm 10 mps 753 mmHg 59%
    15:00 +12°C° 0.2 mm 10 mps 753 mmHg 61%
    16:00 +12°C° 0.2 mm 10 mps 753 mmHg 64%
    17:00 +11°C° 0.1 mm 10 mps 753 mmHg 68%
    18:00 +10°C° 0.1 mm 9 mps 753 mmHg 72%
    19:00 +8°C° 0.1 mm 9 mps 753 mmHg 77%
    20:00 +8°C° 0 mm 9 mps 753 mmHg 77%
    21:00 +9°C° 0 mm 8 mps 753 mmHg 77%
    22:00 +9°C° 0 mm 8 mps 754 mmHg 78%
    23:00 +9°C° 0 mm 8 mps 754 mmHg 77%

    Day after tomorrow, 23 September, Sunday

    Time Temperature Precipitation Wind Pressure Humidity
    00:00 +8°C° 0 mm 9 mps 754 mmHg 75%
    01:00 +8°C° 0 mm 9 mps 754 mmHg 74%
    02:00 +8°C° 0 mm 9 mps 755 mmHg 75%
    03:00 +8°C° 0 mm 9 mps 755 mmHg 76%
    04:00 +9°C° 0 mm 8 mps 755 mmHg 77%
    05:00 +7°C° 0 mm 8 mps 755 mmHg 77%
    06:00 +7°C° 0 mm 8 mps 755 mmHg 78%
    07:00 +8°C° 0 mm 7 mps 756 mmHg 79%
    08:00 +9°C° 0 mm 7 mps 756 mmHg 73%
    09:00 +10°C° 0 mm 7 mps 756 mmHg 67%
    10:00 +12°C° 0 mm 8 mps 756 mmHg 61%
    11:00 +12°C° 0 mm 8 mps 756 mmHg 60%
    12:00 +12°C° 0 mm 7 mps 756 mmHg 58%
    13:00 +12°C° 0 mm 7 mps 757 mmHg 56%
    14:00 +12°C° 0 mm 7 mps 756 mmHg 57%
    15:00 +12°C° 0 mm 7 mps 756 mmHg 57%
    16:00 +11°C° 0 mm 7 mps 756 mmHg 58%
    17:00 +10°C° 0 mm 7 mps 756 mmHg 61%
    18:00 +9°C° 0 mm 6 mps 755 mmHg 65%
    19:00 +8°C° 0 mm 6 mps 755 mmHg 68%
    20:00 +8°C° 0 mm 6 mps 755 mmHg 67%
    21:00 +8°C° 0 mm 7 mps 756 mmHg 65%
    22:00 +8°C° 0 mm 7 mps 756 mmHg 64%
    23:00 +7°C° 0 mm 8 mps 756 mmHg 64%

    24 September, Monday

    Time Temperature Precipitation Wind Pressure Humidity
    00:00 +6°C° 0 mm 8 mps 756 mmHg 65%
    01:00 +6°C° 0 mm 8 mps 756 mmHg 65%
    02:00 +6°C° 0 mm 8 mps 757 mmHg 64%
    03:00 +6°C° 0 mm 9 mps 758 mmHg 63%
    04:00 +6°C° 0 mm 9 mps 758 mmHg 63%
    05:00 +6°C° 0 mm 9 mps 759 mmHg 62%
    06:00 +6°C° 0 mm 9 mps 759 mmHg 62%
    07:00 +6°C° 0 mm 9 mps 760 mmHg 62%
    08:00 +7°C° 0.1 mm 9 mps 761 mmHg 58%
    09:00 +8°C° 0.1 mm 9 mps 762 mmHg 55%
    10:00 +10°C° 0.1 mm 9 mps 762 mmHg 52%
    11:00 +10°C° 0.1 mm 9 mps 763 mmHg 49%
    12:00 +11°C° 0.1 mm 9 mps 764 mmHg 47%
    13:00 +11°C° 0.1 mm 8 mps 765 mmHg 45%
    14:00 +11°C° 0.1 mm 8 mps 766 mmHg 44%
    15:00 +11°C° 0.1 mm 8 mps 766 mmHg 44%
    16:00 +11°C° 0.1 mm 8 mps 767 mmHg 44%
    17:00 +10°C° 0 mm 7 mps 768 mmHg 49%
    18:00 +9°C° 0 mm 7 mps 768 mmHg 53%
    19:00 +8°C° 0 mm 7 mps 769 mmHg 58%
    20:00 +8°C° 0 mm 7 mps 770 mmHg 60%
    21:00 +6°C° 0 mm 7 mps 770 mmHg 61%
    22:00 +6°C° 0 mm 7 mps 771 mmHg 63%
    23:00 +6°C° 0 mm 7 mps 771 mmHg 67%

    25 September, Tuesday

    Time Temperature Precipitation Wind Pressure Humidity
    00:00 +5°C° 0 mm 6 mps 771 mmHg 72%
    01:00 +5°C° 0 mm 6 mps 772 mmHg 77%
    02:00 +5°C° 0 mm 6 mps 772 mmHg 78%
    03:00 +5°C° 0 mm 6 mps 772 mmHg 79%
    04:00 +7°C° 0 mm 6 mps 772 mmHg 81%
    05:00 +7°C° 0 mm 6 mps 772 mmHg 82%
    06:00 +7°C° 0 mm 6 mps 772 mmHg 82%
    07:00 +7°C° 0 mm 6 mps 772 mmHg 83%
    08:00 +9°C° 0 mm 7 mps 772 mmHg 77%
    09:00 +11°C° 0 mm 7 mps 772 mmHg 72%
    10:00 +12°C° 0 mm 8 mps 773 mmHg 66%
    11:00 +13°C° 0 mm 8 mps 772 mmHg 65%
    12:00 +13°C° 0 mm 8 mps 772 mmHg 63%
    13:00 +13°C° 0 mm 8 mps 772 mmHg 62%
    14:00 +13°C° 0 mm 8 mps 772 mmHg 63%
    15:00 +12°C° 0 mm 9 mps 771 mmHg 64%
    16:00 +12°C° 0 mm 9 mps 771 mmHg 65%
    17:00 +11°C° 0 mm 8 mps 771 mmHg 67%
    18:00 +11°C° 0 mm 8 mps 771 mmHg 69%
    19:00 +10°C° 0 mm 7 mps 770 mmHg 71%
    20:00 +10°C° 0 mm 7 mps 770 mmHg 71%
    21:00 +10°C° 0 mm 7 mps 770 mmHg 71%
    22:00 +10°C° 0 mm 7 mps 770 mmHg 71%
    23:00 +10°C° 0 mm 7 mps 769 mmHg 73%

    26 September, Wednesday

    Time Temperature Precipitation Wind Pressure Humidity
    00:00 +10°C° 0 mm 7 mps 769 mmHg 75%
    01:00 +10°C° 0 mm 8 mps 769 mmHg 77%
    02:00 +10°C° 0 mm 8 mps 768 mmHg 77%
    03:00 +10°C° 0 mm 7 mps 768 mmHg 76%
    04:00 +10°C° 0 mm 7 mps 767 mmHg 76%
    05:00 +10°C° 0 mm 8 mps 767 mmHg 76%
    06:00 +11°C° 0 mm 8 mps 766 mmHg 76%
    07:00 +11°C° 0 mm 8 mps 766 mmHg 75%
    08:00 +11°C° 0.1 mm 8 mps 766 mmHg 74%
    09:00 +12°C° 0.1 mm 8 mps 766 mmHg 73%
    10:00 +13°C° 0.1 mm 9 mps 766 mmHg 72%
    11:00 +13°C° 0.1 mm 9 mps 765 mmHg 72%
    12:00 +13°C° 0.1 mm 9 mps 765 mmHg 72%
    13:00 +13°C° 0.1 mm 9 mps 765 mmHg 72%
    14:00 +15°C° 0 mm 9 mps 764 mmHg 71%
    15:00 +15°C° 0 mm 9 mps 764 mmHg 70%
    16:00 +15°C° 0 mm 9 mps 763 mmHg 69%
    17:00 +13°C° 0 mm 9 mps 763 mmHg 72%
    18:00 +13°C° 0 mm 9 mps 763 mmHg 74%
    19:00 +12°C° 0 mm 8 mps 763 mmHg 76%
    20:00 +12°C° 0 mm 8 mps 762 mmHg 75%
    21:00 +12°C° 0 mm 9 mps 762 mmHg 74%
    22:00 +12°C° 0 mm 9 mps 762 mmHg 73%
    23:00 +12°C° 0 mm 9 mps 761 mmHg 74%
    Show more